Hourly Weather Roundup
Issued by NWS Central Illinois

Home | Current Version | Previous Version | Text Only | Print | Product List | Glossary On
Versions: 1 2 3 4 5 6 7 8 9 10 11 12 13 14 15 16 17 18 19 20 21 22 23 24 25 26 27 28 29 30 31 32 33 34 35 36 37 38 39 40 41 42 43 44 45 46 47 48 49 50
000
NZUS43 KILX 291910
HWRILX

AREA WEATHER ROUNDUP
NATIONAL WEATHER SERVICE, LINCOLN IL
200 PM CDT MON JUN 29 2015


CITY           SKY/WX    TMP DP  RH WIND       PRES   REMARKS
BLOOMINGTON    PTSUNNY   78  64  61 NW15      29.85S HX  80
CHAMPAIGN      MOSUNNY   77  66  68 NW9       29.82S
DANVILLE       LGT RAIN  71  66  84 CALM      29.80S
DECATUR        PTSUNNY   78  64  61 W12       29.84S HX  80
EFFINGHAM      MOSUNNY   77  60  56 W9        29.87S
FLORA          SUNNY     78  63  61 NW9       29.86S
GALESBURG      PTSUNNY   76  65  69 W6        29.86F
JACKSONVILLE   CLOUDY    78  66  67 NW7       29.88R
LACON          MOSUNNY   76  63  64 NW9       29.82F
LAWRENCEVILLE  MOSUNNY   78  65  63 NW14      29.84S HX  80
LITCHFIELD     MOSUNNY   76  64  65 NW8       29.88S
$$


CITY           SKY/WX    TMP DP  RH WIND       PRES   REMARKS
LINCOLN        PTSUNNY   78  64  61 NW7       29.85S HX  80
MACOMB         PTSUNNY   74  65  72 W5        29.89S
MATTOON        PTSUNNY   76  65  68 NW12      29.83R
MT CARMEL AP   MOSUNNY   81  63  54 W14       29.84S HX  82
OLNEY-NOBLE AP MOSUNNY   77  66  69 W8        29.86S
PARIS          CLOUDY    77  68  73 NW8       29.82S
PEORIA         PTSUNNY   78  63  59 NW7       29.85S HX  80
PONTIAC        CLOUDY    76  67  75 NW6       29.82F
RANTOUL        PTSUNNY   78  67  68 NW6       29.82S HX  80
ROBINSON       CLOUDY    75  66  72 W10       29.84S
SPRINGFIELD    MOSUNNY   79  66  64 NW10      29.86S HX  81
TAYLORVILLE    MOSUNNY   75  64  69 NW9       29.85S
$$

...REGIONAL REPORTS...


CITY           SKY/WX    TMP DP  RH WIND       PRES   REMARKS
CHICAGO O`HARE PTSUNNY   75  62  64 E9        29.80S
KANKAKEE       CLOUDY    74  65  74 SE6       29.81F
MOLINE         MOSUNNY   76  64  66 W8        29.84F
MOUNT VERNON   MOSUNNY   79  64  61 N3        29.87S HX  81
PITTSFIELD     PTSUNNY   79  66  64 W8        29.89S HX  81
QUINCY         MOSUNNY   79  66  64 NW5       29.88S HX  81
ROCKFORD       PTSUNNY   75  62  64 W7        29.82S THUNDER
$$


CITY           SKY/WX    TMP DP  RH WIND       PRES   REMARKS
BURLINGTON     MOSUNNY   79  66  64 NW6       29.86S HX  81
CEDAR RAPIDS   MOSUNNY   78  66  66 NW12      29.85S HX  80
DES MOINES     CLOUDY    83  63  50 N12       29.89S HX  84
KIRKSVILLE     MOSUNNY   83  64  52 NW9G18    29.90S HX  84
OTTUMWA        PTSUNNY   79  68  69 NW12      29.85S HX  81
ST LOUIS       MOSUNNY   81  66  60 NW9       29.88F HX  83
$$


CITY           SKY/WX    TMP DP  RH WIND       PRES   REMARKS
TERRE HAUTE    PTSUNNY   75  65  70 W8        29.81S
EVANSVILLE     PTSUNNY   82  66  58 NW9       29.84R HX  84
INDIANAPOLIS   CLOUDY    71  63  75 W5        29.81S
LAFAYETTE      LGT RAIN  71  63  75 CALM      29.80S
MADISON        PTSUNNY   74  61  63 CALM      29.80S
MILWAUKEE      PTSUNNY   73  60  63 SE6       29.82S
$$





USA.gov is the U.S. government's official web portal to all federal, state and local government web resources and services.